Location: Unspecified
(25.6470°N, 106.8560°E)
Time: 07:29:13
(UTC+00:00)

Daily predictions for brighter satellites

Satellite Brightness Start Highest point End
(mag) Time Altitude Azimuth Time Altitude Azimuth Time Altitude Azimuth
GPS 2-05 Rocket1 3.0 12:01:05 10° SW 12:04:04 42° SSE 12:04:04 42° SSE
Cosmos 1602 4.0 12:00:57 10° SSE 12:04:41 44° E 12:05:25 39° ENE
Okean 2 Rocket 3.9 12:03:06 10° SSE 12:06:00 30° ESE 12:06:00 30° ESE
Sakura Rocket 4.1 12:01:25 10° W 12:07:14 83° NNW 12:11:34 29° ENE
Cosmos 1633 4.0 12:04:48 10° SSW 12:08:07 38° W 12:11:28 10° NNW
BREEZE-M DEB (TANK) 3.3 12:06:34 10° WSW 12:09:00 49° NW 12:11:47 18° NNE
Cosmos 2219 Rocket 4.4 12:07:05 10° NW 12:11:43 27° WSW 12:16:19 10° SSW
Geosat 4.0 12:08:08 10° NNE 12:13:10 85° WNW 12:18:11 10° SSW
FUSE 4.3 12:08:17 10° W 12:13:30 55° SSW 12:15:46 31° SE
Cosmos 1513 Rocket 4.4 12:07:32 10° N 12:13:51 70° E 12:20:01 10° SSE
HJ-1C 3.3 12:10:36 10° SSE 12:14:00 85° ENE 12:17:26 10° N
Cosmos 1437 Rocket 2.7 12:10:59 10° S 12:14:58 88° E 12:19:02 10° N
Tsikada Rocket 3.9 12:12:33 10° S 12:18:54 72° E 12:25:17 10° N
GPS 2-12 Rocket1 3.9 12:14:23 10° WSW 12:18:55 41° S 12:19:59 36° SE
Shenzhou-11 Module 3.6 12:17:46 10° NW 12:19:27 28° NNW 12:19:27 28° NNW
Iridium 4 Rocket 3.3 12:16:38 10° N 12:21:21 74° W 12:25:41 10° S
Cosmos 2237 Rocket 3.2 12:19:56 10° NNW 12:25:15 45° WSW 12:30:34 10° S
Cosmos 1420 Rocket 3.9 12:21:33 10° N 12:26:50 70° ENE 12:29:00 36° SSE
SL-16 R/B 2.1 12:22:36 10° N 12:28:13 64° ENE 12:29:40 47° SE
Lacrosse 5 2.0 12:24:01 10° NW 12:29:03 71° WSW 12:31:18 33° SSE
Cosmos 44 3.6 12:31:05 10° NNW 12:35:29 55° NNE 12:35:29 55° NNE
DEBRIS 4.5 12:15:52 10° NW 12:39:24 77° NE 12:41:21 50° ESE
CENTAUR R/B 4.5 12:42:13 10° WSW 12:46:45 23° NW 12:51:43 10° N
Envisat 3.2 12:46:47 21° S 12:50:10 68° W 12:55:14 10° NNW
SJ-6B 4.3 12:49:10 27° SW 12:50:14 33° W 12:53:39 10° NNW
ATLAS 2A CENTAUR R/B 4.0 12:42:55 10° W 12:50:18 23° SW 12:52:55 16° S
COSMOS 2455 2.7 12:45:10 10° SSW 12:50:41 73° SSE 12:50:41 73° SSE
SeaSat 1 3.0 12:56:56 53° NW 12:56:56 53° NW 13:00:44 10° NNW
Meteor 1-11 Rocket 3.7 12:51:38 10° S 12:56:52 75° WSW 12:56:52 75° WSW
Cosmos 2263 Rocket 4.0 12:57:28 10° S 12:59:01 19° S 12:59:01 19° S
CZ-3C R/B 4.4 14:36:56 10° W 15:26:18 21° ESE 16:03:44 10° ESE
CZ-3 R/B 4.0 18:20:18 10° WSW 19:25:55 77° E 19:36:09 10° ENE
CENTAUR R/B 4.5 20:22:26 19° N 20:27:11 33° NE 20:34:37 10° ESE
Cosmos 1980 Rocket 4.3 20:34:01 19° SE 20:36:00 22° ESE 20:40:17 10° NE
USA 215 4.3 20:29:44 10° SE 20:33:26 37° SE 20:33:26 37° SE
Milstar 3 4.3 21:00:31 39° SSW 21:00:31 39° SSW 21:07:46 10° SSE
Cosmos 1821 Rocket 4.4 20:58:13 27° SSE 21:01:29 59° E 21:07:31 10° NNE
Cosmos 1697 Rocket 3.7 21:09:23 37° NNE 21:09:23 37° NNE 21:12:40 10° NNE
SJ 16-02 2.9 21:13:58 24° SE 21:15:49 34° E 21:19:50 10° NE
Cosmos 2227 Rocket 2.5 21:16:23 41° N 21:18:16 63° ENE 21:23:50 10° SSE
Intelsat 5-3 Rocket 3.2 21:22:33 71° S 21:22:40 71° S 21:32:48 10° E
Cosmos 2297 Rocket 2.3 21:28:53 24° N 21:32:27 74° ENE 21:38:05 10° SSE
SEDSat Delta rocket 3.5 21:36:57 51° N 21:36:57 51° N 21:40:55 10° ENE
Cosmos 2239 Rocket 4.3 21:32:25 10° SSW 21:38:27 63° W 21:44:32 10° N
GPS 2-15 Rocket1 4.3 21:38:33 30° S 21:39:12 31° S 21:43:24 10° ESE
CZ-4B R/B 3.6 21:35:16 10° N 21:39:21 43° NW 21:39:21 43° NW
Cosmos 1000 Rocket 4.3 21:35:34 10° N 21:41:48 84° W 21:47:57 10° S
Cosmos 1707 Rocket 3.4 21:39:30 10° S 21:43:56 88° W 21:48:25 10° N
Cosmos 2360 4.1 21:41:54 22° SSW 21:45:45 78° WNW 21:51:30 10° NNE
Cosmos 1869 Rocket 3.9 21:41:58 10° N 21:46:22 65° E 21:50:47 10° SSE
Cosmos 1605 Rocket 4.2 21:40:37 10° S 21:46:44 69° E 21:52:48 10° N
Hubble Space Telescope 0.6 21:49:22 79° WSW 21:49:37 89° S 21:53:46 10° ENE
Milstar 3 Cent rocket 3.8 21:48:15 16° SSW 21:52:09 38° SSE 22:00:21 10° E
Meteor 2-17 Rocket 4.4 21:53:12 10° S 21:59:13 88° E 22:05:18 10° N
Cosmos 2082 3.6 21:54:34 12° NNW 21:59:54 69° WSW 22:05:34 10° S
CZ-2C R/B 4.0 21:56:26 10° SSE 22:01:08 71° ENE 22:05:47 10° N
Delta 168 4.0 22:02:33 20° S 22:03:31 24° SSE 22:06:13 10° ESE
NOAA 6 3.9 21:58:40 10° N 22:03:49 78° WNW 22:08:55 10° SSW
Meteor 1-28 Rocket 3.9 22:00:19 10° S 22:02:59 35° SW 22:02:59 35° SW
SKYMED 2 4.3 22:02:15 10° SSE 22:06:29 54° ENE 22:10:43 10° N
Cosmos 2322 Rocket 3.3 22:01:41 10° S 22:07:02 46° ESE 22:12:26 10° NNE
Cosmos 2242 Rocket 4.2 22:02:39 10° S 22:07:08 61° E 22:11:38 10° NNE
IDEFIX/ARIANE 42P 2.4 22:04:18 10° N 22:09:29 71° WNW 22:14:38 10° SSW
Lacrosse 5 rocket 4.0 22:07:07 10° N 22:09:36 16° NE 22:12:09 10° E
XTE 4.4 22:11:19 21° S 22:11:47 22° SSE 22:13:51 10° ESE
Cosmos 2285 Rocket 4.3 22:09:32 10° NNW 22:15:33 43° W 22:21:32 10° S
CENTAUR R/B 3.4 22:10:10 10° NW 22:18:06 49° WSW 22:26:08 10° S
USA 116 4.0 22:15:26 10° S 22:19:23 55° W 22:23:54 10° NNW
Cosmos 1980 Rocket 2.8 22:15:58 17° WSW 22:19:41 33° WNW 22:24:47 10° N
GPS 2-17 Rocket1 4.1 22:20:56 16° SW 22:24:20 39° S 22:28:46 10° ESE
PAYLOAD A 4.1 22:20:17 10° N 22:24:53 47° WNW 22:29:38 10° SSW
COSMOS 2441 4.4 22:20:28 10° NNE 22:25:22 89° E 22:30:17 10° SSW
CZ-2C R/B 2.4 22:20:45 10° N 22:25:51 71° WNW 22:31:00 10° SSW
Aureole 1 Rocket 3.8 22:20:44 10° NNW 22:27:29 60° W 22:32:34 10° S
Cosmos 1606 4.5 22:26:04 10° SSE 22:29:35 35° E 22:33:06 10° NNE
Tiangong 1 1.6 22:30:19 17° NNW 22:31:41 34° NE 22:33:49 10° ESE
LE-5 3.5 22:31:09 29° NW 22:31:46 40° N 22:34:21 10° ENE
Palapa 6 Rocket 3.4 22:31:00 16° W 22:34:59 59° S 22:39:14 10° ESE
BREEZE-M DEB (TANK) 3.7 22:37:16 10° NNW 22:39:06 18° NE 22:40:47 10° E
Fermi 4.4 22:36:22 16° W 22:39:26 44° SSW 22:43:23 10° ESE
Meteor 1-26 Rocket 4.3 22:33:37 10° SSW 22:39:29 68° W 22:45:21 10° N
Cosmos 1048 Rocket 4.4 22:34:54 10° N 22:40:00 66° ENE 22:45:03 10° SSE
ATLAS 5 CENTAUR R/B 1.9 22:36:52 10° SW 22:41:03 46° WNW 22:45:31 10° NNE
Cosmos 405 Rocket 3.0 22:38:07 10° SSW 22:41:58 45° W 22:45:48 10° N
Cosmos 1484 Rocket 3.4 22:38:37 10° NNE 22:42:36 64° E 22:46:33 10° S
Cosmos 2123 Rocket 4.3 22:36:55 10° NNW 22:42:45 43° W 22:48:37 10° SSW
ASTRO E2 3.2 22:41:05 13° WNW 22:44:36 54° NNE 22:48:32 10° E
Okean-O 3.4 22:41:17 10° NNW 22:45:06 29° WNW 22:48:55 10° SW
Cosmos 158 Rocket 4.0 22:42:09 10° NNW 22:47:10 62° WSW 22:52:18 10° S
Cosmos 1862 Rocket 3.8 22:45:33 10° SSW 22:49:39 44° W 22:53:49 10° N
SL-16 R/B 2.2 22:45:10 10° SSW 22:50:44 62° WNW 22:56:21 10° N
SJ-12 4.1 22:47:50 10° N 22:51:51 50° WNW 22:55:49 10° SSW
Radarsat Rocket 4.4 22:47:15 10° N 22:52:39 39° WNW 22:58:26 10° SW
Cosmos 405 3.0 22:50:46 10° NNW 22:54:17 61° W 22:57:48 10° S
SJ 16-02 3.1 22:52:22 10° W 22:54:25 13° WNW 22:56:30 10° NW
COSMO-SKYMED 1 3.2 22:50:39 10° SSW 22:54:33 33° W 22:58:29 10° NW
MTI 4.3 22:53:34 10° SSW 22:56:31 35° W 22:59:28 10° NNW
Cosmos 1733 Rocket 3.1 22:54:42 10° NNW 22:59:01 62° W 23:03:21 10° S
USA 234 3.5 22:53:14 10° NE 22:59:46 77° SE 23:06:17 10° SW
Intelsat 5-1 Rocket 2.8 22:54:46 10° W 23:04:29 75° S 23:08:07 10° E
CZ-3 R/B 1.7 22:58:18 10° WNW 23:11:49 87° N 23:15:47 10° ESE
